Time,TemperatureF,DewpointF,PressureIn,WindDirection,WindDirectionDegrees,WindSpeedMPH,WindSpeedGustMPH,Humidity,HourlyPrecipIn,Conditions,Clouds,dailyrainin,SoftwareType,DateUTC
2013-02-22 00:00:00,27.3,26.0,29.90,ENE,69,3.0,9.0,95,0.00,,,0.00,weatherlink.com 1.10,2013-02-22 06:00:00,
2013-02-22 00:15:00,27.4,26.0,29.89,NE,55,2.0,7.0,95,0.00,,,0.00,weatherlink.com 1.10,2013-02-22 06:15:00,
2013-02-22 00:30:00,27.4,26.0,29.88,ENE,65,7.0,8.0,95,0.00,,,0.00,weatherlink.com 1.10,2013-02-22 06:30:00,
2013-02-22 00:45:00,27.4,26.0,29.88,ENE,76,4.0,10.0,95,0.00,,,0.00,weatherlink.com 1.10,2013-02-22 06:45:00,
2013-02-22 01:00:00,27.4,26.0,29.88,East,101,7.0,8.0,95,0.00,,,0.00,weatherlink.com 1.10,2013-02-22 07:00:00,
2013-02-22 01:15:00,27.4,26.0,29.88,East,82,2.0,4.0,95,0.00,,,0.00,weatherlink.com 1.10,2013-02-22 07:15:00,
2013-02-22 01:30:00,27.4,26.0,29.87,ESE,109,2.0,7.0,95,0.00,,,0.00,weatherlink.com 1.10,2013-02-22 07:30:00,
2013-02-22 01:45:00,27.4,26.0,29.86,ESE,104,1.0,7.0,95,0.00,,,0.00,weatherlink.com 1.10,2013-02-22 07:45:00,
2013-02-22 02:00:00,27.4,26.0,29.86,East,92,1.0,5.0,95,0.00,,,0.00,weatherlink.com 1.10,2013-02-22 08:00:00,
2013-02-22 02:15:00,27.5,26.0,29.85,ENE,70,2.0,7.0,95,0.00,,,0.00,weatherlink.com 1.10,2013-02-22 08:15:00,
2013-02-22 02:30:00,27.5,26.0,29.85,East,98,2.0,8.0,95,0.00,,,0.00,weatherlink.com 1.10,2013-02-22 08:30:00,
2013-02-22 02:45:00,27.5,26.0,29.84,East,86,1.0,7.0,95,0.00,,,0.00,weatherlink.com 1.10,2013-02-22 08:45:00,
2013-02-22 03:00:00,27.6,26.0,29.84,ESE,105,5.0,6.0,95,0.00,,,0.00,weatherlink.com 1.10,2013-02-22 09:00:00,
2013-02-22 03:16:00,27.8,27.0,29.83,East,96,2.0,5.0,95,0.00,,,0.00,weatherlink.com 1.10,2013-02-22 09:16:00,
2013-02-22 03:31:00,27.9,27.0,29.82,East,87,1.0,5.0,96,0.00,,,0.00,weatherlink.com 1.10,2013-02-22 09:31:00,
2013-02-22 03:46:00,28.1,27.0,29.82,ESE,113,2.0,6.0,96,0.00,,,0.00,weatherlink.com 1.10,2013-02-22 09:46:00,
2013-02-22 04:01:00,28.3,27.0,29.82,NE,53,0.0,5.0,96,0.00,,,0.00,weatherlink.com 1.10,2013-02-22 10:01:00,
2013-02-22 04:16:00,28.6,28.0,29.82,SE,128,0.0,5.0,96,0.00,,,0.00,weatherlink.com 1.10,2013-02-22 10:16:00,
2013-02-22 04:31:00,28.8,28.0,29.81,ESE,111,2.0,4.0,96,0.00,,,0.00,weatherlink.com 1.10,2013-02-22 10:31:00,
2013-02-22 04:46:00,29.0,28.0,29.81,ESE,115,3.0,4.0,96,0.00,,,0.00,weatherlink.com 1.10,2013-02-22 10:46:00,
2013-02-22 05:01:00,29.1,28.0,29.80,ESE,107,1.0,4.0,96,0.00,,,0.00,weatherlink.com 1.10,2013-02-22 11:01:00,
2013-02-22 05:16:00,29.2,28.0,29.80,ESE,121,2.0,4.0,96,0.00,,,0.00,weatherlink.com 1.10,2013-02-22 11:16:00,
2013-02-22 05:31:00,29.3,28.0,29.80,SE,136,3.0,4.0,96,0.00,,,0.00,weatherlink.com 1.10,2013-02-22 11:31:00,
2013-02-22 05:46:00,29.5,29.0,29.79,SE,129,2.0,6.0,96,0.00,,,0.00,weatherlink.com 1.10,2013-02-22 11:46:00,
2013-02-22 06:01:00,29.6,29.0,29.80,SE,125,0.0,4.0,96,0.00,,,0.00,weatherlink.com 1.10,2013-02-22 12:01:00,
2013-02-22 06:16:00,29.9,29.0,29.80,SE,125,0.0,3.0,96,0.00,,,0.00,weatherlink.com 1.10,2013-02-22 12:16:00,
2013-02-22 06:31:00,30.1,29.0,29.80,SE,125,0.0,3.0,96,0.00,,,0.00,weatherlink.com 1.10,2013-02-22 12:31:00,
2013-02-22 06:46:00,30.6,30.0,29.81,SE,125,0.0,2.0,96,0.00,,,0.00,weatherlink.com 1.10,2013-02-22 12:46:00,
2013-02-22 07:01:00,31.3,30.0,29.80,SE,126,1.0,4.0,96,0.00,,,0.00,weatherlink.com 1.10,2013-02-22 13:01:00,
2013-02-22 07:16:00,31.9,31.0,29.80,SSE,165,3.0,5.0,97,0.00,,,0.00,weatherlink.com 1.10,2013-02-22 13:16:00,
2013-02-22 07:31:00,32.1,31.0,29.80,SSE,147,6.0,7.0,96,0.00,,,0.00,weatherlink.com 1.10,2013-02-22 13:31:00,
2013-02-22 07:46:00,32.3,31.0,29.80,SSE,163,4.0,7.0,96,0.00,,,0.00,weatherlink.com 1.10,2013-02-22 13:46:00,
2013-02-22 08:01:00,32.3,31.0,29.82,South,182,4.0,7.0,96,0.00,,,0.00,weatherlink.com 1.10,2013-02-22 14:01:00,
2013-02-22 08:16:00,32.4,31.0,29.82,SSE,160,5.0,8.0,96,0.00,,,0.00,weatherlink.com 1.10,2013-02-22 14:16:00,
2013-02-22 08:31:00,32.4,31.0,29.83,South,186,4.0,8.0,96,0.00,,,0.00,weatherlink.com 1.10,2013-02-22 14:31:00,
2013-02-22 08:46:00,32.5,32.0,29.83,South,173,3.0,11.0,96,0.00,,,0.00,weatherlink.com 1.10,2013-02-22 14:46:00,
2013-02-22 09:01:00,32.5,32.0,29.84,SW,216,8.0,10.0,96,0.00,,,0.00,weatherlink.com 1.10,2013-02-22 15:01:00,
2013-02-22 09:16:00,32.6,32.0,29.84,SSW,200,2.0,11.0,96,0.00,,,0.00,weatherlink.com 1.10,2013-02-22 15:16:00,
2013-02-22 09:31:00,32.5,31.0,29.84,WSW,251,5.0,11.0,95,0.00,,,0.00,weatherlink.com 1.10,2013-02-22 15:31:00,
2013-02-22 09:46:00,32.5,31.0,29.85,WSW,237,8.0,15.0,95,0.00,,,0.00,weatherlink.com 1.10,2013-02-22 15:46:00,
2013-02-22 10:01:00,32.4,31.0,29.85,WNW,286,8.0,13.0,95,0.00,,,0.00,weatherlink.com 1.10,2013-02-22 16:01:00,
2013-02-22 10:16:00,32.2,31.0,29.86,WSW,240,10.0,17.0,95,0.00,,,0.00,weatherlink.com 1.10,2013-02-22 16:16:00,
2013-02-22 10:31:00,32.2,31.0,29.86,WSW,240,6.0,13.0,94,0.00,,,0.00,weatherlink.com 1.10,2013-02-22 16:31:00,
2013-02-22 10:46:00,31.8,30.0,29.87,WSW,248,7.0,17.0,93,0.00,,,0.00,weatherlink.com 1.10,2013-02-22 16:46:00,
2013-02-22 11:01:00,31.7,30.0,29.88,West,271,8.0,16.0,92,0.00,,,0.00,weatherlink.com 1.10,2013-02-22 17:01:00,
2013-02-22 11:16:00,31.7,29.0,29.88,SW,233,18.0,21.0,90,0.00,,,0.00,weatherlink.com 1.10,2013-02-22 17:16:00,
2013-02-22 11:31:00,32.0,29.0,29.88,SW,225,4.0,14.0,89,0.00,,,0.00,weatherlink.com 1.10,2013-02-22 17:31:00,
2013-02-22 11:46:00,31.8,29.0,29.88,WSW,244,9.0,16.0,89,0.00,,,0.00,weatherlink.com 1.10,2013-02-22 17:46:00,
2013-02-22 12:01:00,31.8,29.0,29.88,WSW,252,8.0,18.0,89,0.00,,,0.00,weatherlink.com 1.10,2013-02-22 18:01:00,
2013-02-22 12:16:00,31.8,28.0,29.88,WSW,244,12.0,17.0,87,0.00,,,0.00,weatherlink.com 1.10,2013-02-22 18:16:00,
2013-02-22 12:31:00,31.4,28.0,29.88,WSW,254,10.0,19.0,88,0.00,,,0.00,weatherlink.com 1.10,2013-02-22 18:31:00,
2013-02-22 12:46:00,30.9,27.0,29.89,WNW,285,10.0,21.0,86,0.00,,,0.00,weatherlink.com 1.10,2013-02-22 18:46:00,
2013-02-22 13:01:00,30.7,27.0,29.89,SW,229,15.0,20.0,86,0.00,,,0.00,weatherlink.com 1.10,2013-02-22 19:01:00,
2013-02-22 13:16:00,30.5,27.0,29.89,West,269,12.0,19.0,86,0.00,,,0.00,weatherlink.com 1.10,2013-02-22 19:16:00,
2013-02-22 13:31:00,30.2,27.0,29.90,WSW,246,16.0,19.0,86,0.00,,,0.00,weatherlink.com 1.10,2013-02-22 19:31:00,
2013-02-22 13:46:00,29.9,26.0,29.90,West,264,11.0,21.0,85,0.00,,,0.00,weatherlink.com 1.10,2013-02-22 19:46:00,
2013-02-22 14:01:00,30.0,25.0,29.91,SW,221,14.0,22.0,83,0.00,,,0.00,weatherlink.com 1.10,2013-02-22 20:01:00,
2013-02-22 14:17:00,30.0,26.0,29.91,South,184,7.0,21.0,84,0.01,,,0.01,weatherlink.com 1.10,2013-02-22 20:17:00,
2013-02-22 14:32:00,30.3,25.0,29.91,WSW,241,13.0,18.0,82,0.01,,,0.01,weatherlink.com 1.10,2013-02-22 20:32:00,
2013-02-22 14:47:00,30.2,25.0,29.92,WSW,241,9.0,19.0,82,0.01,,,0.01,weatherlink.com 1.10,2013-02-22 20:47:00,
2013-02-22 15:02:00,30.1,25.0,29.92,SW,223,13.0,19.0,81,0.02,,,0.02,weatherlink.com 1.10,2013-02-22 21:02:00,
2013-02-22 15:17:00,29.9,25.0,29.92,NW,306,9.0,17.0,82,0.01,,,0.02,weatherlink.com 1.10,2013-02-22 21:17:00,
2013-02-22 15:32:00,29.8,25.0,29.93,WSW,253,14.0,19.0,82,0.01,,,0.02,weatherlink.com 1.10,2013-02-22 21:32:00,
2013-02-22 15:47:00,29.7,25.0,29.93,WSW,246,8.0,19.0,83,0.01,,,0.02,weatherlink.com 1.10,2013-02-22 21:47:00,
2013-02-22 16:02:00,29.6,25.0,29.94,WSW,244,5.0,16.0,83,0.01,,,0.03,weatherlink.com 1.10,2013-02-22 22:02:00,
2013-02-22 16:17:00,29.4,25.0,29.94,WSW,250,8.0,17.0,83,0.01,,,0.03,weatherlink.com 1.10,2013-02-22 22:17:00,
2013-02-22 16:32:00,29.1,25.0,29.94,SSW,213,7.0,17.0,83,0.01,,,0.03,weatherlink.com 1.10,2013-02-22 22:32:00,
2013-02-22 16:47:00,29.0,25.0,29.94,West,267,6.0,14.0,84,0.01,,,0.03,weatherlink.com 1.10,2013-02-22 22:47:00,
2013-02-22 17:02:00,28.8,24.0,29.95,SW,219,7.0,15.0,83,0.00,,,0.03,weatherlink.com 1.10,2013-02-22 23:02:00,
2013-02-22 17:17:00,28.6,24.0,29.95,West,278,7.0,15.0,83,0.00,,,0.03,weatherlink.com 1.10,2013-02-22 23:17:00,
2013-02-22 17:32:00,28.4,24.0,29.95,WSW,238,9.0,17.0,82,0.00,,,0.03,weatherlink.com 1.10,2013-02-22 23:32:00,
2013-02-22 17:47:00,28.3,24.0,29.96,WSW,238,11.0,14.0,83,0.00,,,0.03,weatherlink.com 1.10,2013-02-22 23:47:00,
2013-02-22 18:02:00,28.2,24.0,29.97,WSW,242,6.0,13.0,83,0.00,,,0.03,weatherlink.com 1.10,2013-02-23 00:02:00,
2013-02-22 18:17:00,28.2,24.0,29.97,SW,233,8.0,17.0,84,0.00,,,0.03,weatherlink.com 1.10,2013-02-23 00:17:00,
2013-02-22 18:32:00,28.3,24.0,29.97,West,260,6.0,13.0,83,0.00,,,0.03,weatherlink.com 1.10,2013-02-23 00:32:00,
2013-02-22 18:47:00,28.1,24.0,29.98,SW,236,5.0,14.0,84,0.00,,,0.03,weatherlink.com 1.10,2013-02-23 00:47:00,
2013-02-22 19:02:00,28.2,24.0,29.98,WSW,247,11.0,14.0,84,0.00,,,0.03,weatherlink.com 1.10,2013-02-23 01:02:00,
2013-02-22 19:17:00,28.2,24.0,29.99,SW,233,8.0,12.0,84,0.00,,,0.03,weatherlink.com 1.10,2013-02-23 01:17:00,
2013-02-22 19:32:00,28.2,24.0,29.99,WSW,257,3.0,11.0,84,0.00,,,0.03,weatherlink.com 1.10,2013-02-23 01:32:00,
2013-02-22 19:47:00,28.2,24.0,30.00,WSW,237,3.0,12.0,84,0.00,,,0.03,weatherlink.com 1.10,2013-02-23 01:47:00,
2013-02-22 20:02:00,28.1,24.0,30.00,West,265,6.0,10.0,85,0.00,,,0.03,weatherlink.com 1.10,2013-02-23 02:02:00,
2013-02-22 20:17:00,28.1,24.0,30.00,WSW,252,5.0,11.0,84,0.00,,,0.03,weatherlink.com 1.10,2013-02-23 02:17:00,
2013-02-22 20:32:00,28.0,24.0,30.00,SW,217,8.0,12.0,85,0.00,,,0.03,weatherlink.com 1.10,2013-02-23 02:32:00,
2013-02-22 20:47:00,28.0,24.0,30.00,SW,215,6.0,11.0,84,0.00,,,0.03,weatherlink.com 1.10,2013-02-23 02:47:00,
2013-02-22 21:02:00,27.9,23.0,30.00,WSW,244,7.0,11.0,83,0.00,,,0.03,weatherlink.com 1.10,2013-02-23 03:02:00,
2013-02-22 21:17:00,27.8,23.0,30.00,WSW,243,5.0,11.0,83,0.00,,,0.03,weatherlink.com 1.10,2013-02-23 03:17:00,
2013-02-22 21:32:00,27.6,23.0,30.00,SW,222,6.0,14.0,83,0.00,,,0.03,weatherlink.com 1.10,2013-02-23 03:32:00,
2013-02-22 21:47:00,27.5,23.0,30.00,NW,309,4.0,11.0,83,0.00,,,0.03,weatherlink.com 1.10,2013-02-23 03:47:00,
2013-02-22 22:02:00,27.4,23.0,30.00,West,259,9.0,13.0,83,0.00,,,0.03,weatherlink.com 1.10,2013-02-23 04:02:00,
2013-02-22 22:17:00,27.4,23.0,30.00,NW,319,4.0,12.0,83,0.00,,,0.03,weatherlink.com 1.10,2013-02-23 04:17:00,
2013-02-22 22:32:00,27.3,23.0,30.00,West,259,6.0,13.0,83,0.00,,,0.03,weatherlink.com 1.10,2013-02-23 04:32:00,
2013-02-22 22:47:00,27.2,23.0,30.01,WNW,289,1.0,14.0,84,0.00,,,0.03,weatherlink.com 1.10,2013-02-23 04:47:00,
2013-02-22 23:02:00,27.1,23.0,30.00,West,259,12.0,15.0,83,0.00,,,0.03,weatherlink.com 1.10,2013-02-23 05:02:00,
2013-02-22 23:17:00,26.9,23.0,30.01,WNW,293,5.0,9.0,85,0.00,,,0.03,weatherlink.com 1.10,2013-02-23 05:17:00,
2013-02-22 23:32:00,26.5,21.0,30.00,NW,315,12.0,18.0,81,0.00,,,0.03,weatherlink.com 1.10,2013-02-23 05:32:00,
2013-02-22 23:47:00,26.3,22.0,30.01,West,271,7.0,13.0,82,0.00,,,0.00,weatherlink.com 1.10,2013-02-23 05:47:00,